Location: Brienzwiler
(46.7508°N, 8.1014°E)
Time: 16:34:49
(UTC+00:00)

USA 267 - Pass Details

Date: 05 July 2020
Orbit: 1102 x 1106 km, 123.0° (Epoch: 09 August)

Event Time Altitude Azimuth Distance (km) Brightness Sun altitude
Exits shadow 21:33:57 15° 117° (ESE) 2,589 4.7 -15.6°
Maximum altitude 21:39:30 79° 33° (NNE) 1,125 3.3 -16.0°
Drops below altitude 10° 21:46:03 10° 308° (NW) 2,966 6.5 -16.5°
Sets 21:48:32 0° 307° (NW) 3,926 7.3 -16.7°
